WGS F8 (USA 272)

Last updated on Sun Apr 12 2026 00:02:54 GMT+0000 (Coordinated Universal Time)

1 41879U 16075A 26101.20669765 -.00000201 00000+0 00000+0 0 9991 2 41879 0.0123 223.7512 0000993 306.0262 253.8637 1.00270076 34148
UTC large
Height (km)
Speed (km/s)
/
Latitude / Longitude
Inclination (degrees)
Orbital Period (minutes)
Azimuth
Elevation
Range (km)
Doppler Factor

Next 0 passes for location: London (51.5072 / 0.1276)

Sorry there are no passes over London.
WGS F8 (USA 272)